• In Hungary
  • List of Countries
  • For 7 days
  • Water Temperature
  • Satellite Maps
  • Weather Map
  • News
  • Weather Widgets
  • user-avatar
    Login

    Hourly Weather Burgos

    Today, 21 June, Thursday

    Time Temperature Precipitation Wind Pressure Humidity
    00:00 +17°C° 0 mm 2 mps 687 mmHg 90%
    01:00 +17°C° 0.1 mm 2 mps 686 mmHg 90%
    02:00 +17°C° 0.1 mm 2 mps 686 mmHg 91%
    03:00 +16°C° 0.1 mm 2 mps 686 mmHg 91%
    04:00 +17°C° 0 mm 2 mps 686 mmHg 90%
    05:00 +17°C° 0 mm 2 mps 686 mmHg 89%
    06:00 +17°C° 0 mm 2 mps 687 mmHg 89%
    07:00 +19°C° 0 mm 2 mps 687 mmHg 82%
    08:00 +21°C° 0 mm 2 mps 687 mmHg 75%
    09:00 +24°C° 0 mm 3 mps 688 mmHg 69%
    10:00 +25°C° 0 mm 3 mps 688 mmHg 64%
    11:00 +26°C° 0 mm 3 mps 688 mmHg 59%
    12:00 +28°C° 0 mm 3 mps 688 mmHg 54%
    13:00 +28°C° 0 mm 4 mps 688 mmHg 54%
    14:00 +28°C° 0 mm 4 mps 688 mmHg 54%
    15:00 +28°C° 0 mm 4 mps 688 mmHg 55%
    16:00 +27°C° 0.1 mm 5 mps 687 mmHg 60%
    17:00 +25°C° 0.1 mm 5 mps 687 mmHg 66%
    18:00 +23°C° 0.1 mm 5 mps 687 mmHg 72%
    19:00 +21°C° 0 mm 5 mps 687 mmHg 78%
    20:00 +20°C° 0 mm 5 mps 687 mmHg 84%
    21:00 +18°C° 0 mm 4 mps 687 mmHg 89%
    22:00 +17°C° 0 mm 4 mps 687 mmHg 91%
    23:00 +17°C° 0 mm 4 mps 687 mmHg 92%

    Tomorrow, 22 June, Friday

    Time Temperature Precipitation Wind Pressure Humidity
    00:00 +15°C° 0 mm 4 mps 687 mmHg 93%
    01:00 +15°C° 0 mm 4 mps 687 mmHg 93%
    02:00 +16°C° 0 mm 3 mps 687 mmHg 94%
    03:00 +16°C° 0 mm 3 mps 686 mmHg 94%
    04:00 +16°C° 0 mm 3 mps 687 mmHg 93%
    05:00 +16°C° 0 mm 3 mps 687 mmHg 92%
    06:00 +16°C° 0 mm 3 mps 687 mmHg 90%
    07:00 +18°C° 0 mm 3 mps 687 mmHg 84%
    08:00 +20°C° 0 mm 3 mps 687 mmHg 78%
    09:00 +21°C° 0 mm 4 mps 688 mmHg 72%
    10:00 +24°C° 0 mm 3 mps 688 mmHg 68%
    11:00 +25°C° 0 mm 3 mps 688 mmHg 63%
    12:00 +27°C° 0 mm 3 mps 688 mmHg 59%
    13:00 +27°C° 0.1 mm 4 mps 688 mmHg 59%
    14:00 +27°C° 0.1 mm 4 mps 687 mmHg 59%
    15:00 +27°C° 0.1 mm 4 mps 687 mmHg 59%
    16:00 +25°C° 0.1 mm 4 mps 687 mmHg 64%
    17:00 +23°C° 0.1 mm 4 mps 687 mmHg 68%
    18:00 +22°C° 0.1 mm 5 mps 686 mmHg 73%
    19:00 +20°C° 0 mm 4 mps 686 mmHg 78%
    20:00 +18°C° 0 mm 4 mps 686 mmHg 82%
    21:00 +15°C° 0 mm 4 mps 686 mmHg 87%
    22:00 +16°C° 0 mm 3 mps 686 mmHg 86%
    23:00 +14°C° 0 mm 3 mps 686 mmHg 86%

    Day after tomorrow, 23 June, Saturday

    Time Temperature Precipitation Wind Pressure Humidity
    00:00 +13°C° 0 mm 3 mps 686 mmHg 85%
    01:00 +13°C° 0 mm 3 mps 686 mmHg 82%
    02:00 +13°C° 0 mm 2 mps 685 mmHg 80%
    03:00 +13°C° 0 mm 2 mps 685 mmHg 77%
    04:00 +14°C° 0 mm 2 mps 685 mmHg 75%
    05:00 +14°C° 0 mm 2 mps 685 mmHg 74%
    06:00 +15°C° 0 mm 2 mps 686 mmHg 72%
    07:00 +17°C° 0 mm 2 mps 686 mmHg 66%
    08:00 +20°C° 0 mm 2 mps 686 mmHg 60%
    09:00 +22°C° 0 mm 3 mps 687 mmHg 53%
    10:00 +25°C° 0 mm 3 mps 687 mmHg 50%
    11:00 +27°C° 0 mm 3 mps 687 mmHg 47%
    12:00 +29°C° 0 mm 3 mps 688 mmHg 44%
    13:00 +29°C° 0 mm 3 mps 687 mmHg 44%
    14:00 +29°C° 0 mm 3 mps 687 mmHg 44%
    15:00 +30°C° 0 mm 3 mps 687 mmHg 44%
    16:00 +28°C° 0 mm 3 mps 686 mmHg 50%
    17:00 +27°C° 0 mm 3 mps 686 mmHg 55%
    18:00 +26°C° 0 mm 4 mps 685 mmHg 61%
    19:00 +24°C° 0 mm 3 mps 685 mmHg 67%
    20:00 +21°C° 0 mm 3 mps 685 mmHg 73%
    21:00 +18°C° 0 mm 3 mps 685 mmHg 80%
    22:00 +18°C° 0 mm 2 mps 685 mmHg 80%
    23:00 +17°C° 0 mm 2 mps 685 mmHg 80%

    24 June, Sunday

    Time Temperature Precipitation Wind Pressure Humidity
    00:00 +17°C° 0 mm 2 mps 684 mmHg 81%
    01:00 +17°C° 0 mm 2 mps 684 mmHg 79%
    02:00 +16°C° 0 mm 2 mps 684 mmHg 77%
    03:00 +16°C° 0 mm 2 mps 684 mmHg 75%
    04:00 +17°C° 0 mm 2 mps 684 mmHg 74%
    05:00 +17°C° 0 mm 2 mps 684 mmHg 73%
    06:00 +18°C° 0 mm 2 mps 684 mmHg 71%
    07:00 +20°C° 0 mm 2 mps 685 mmHg 64%
    08:00 +24°C° 0 mm 2 mps 685 mmHg 57%
    09:00 +26°C° 0 mm 2 mps 686 mmHg 49%
    10:00 +28°C° 0 mm 2 mps 686 mmHg 46%
    11:00 +29°C° 0 mm 2 mps 686 mmHg 44%
    12:00 +31°C° 0 mm 2 mps 686 mmHg 41%
    13:00 +31°C° 0 mm 2 mps 686 mmHg 40%
    14:00 +31°C° 0 mm 2 mps 685 mmHg 40%
    15:00 +32°C° 0 mm 2 mps 685 mmHg 39%
    16:00 +31°C° 0 mm 2 mps 685 mmHg 45%
    17:00 +30°C° 0 mm 2 mps 685 mmHg 50%
    18:00 +29°C° 0 mm 3 mps 684 mmHg 56%
    19:00 +26°C° 0 mm 3 mps 684 mmHg 62%
    20:00 +24°C° 0 mm 3 mps 684 mmHg 69%
    21:00 +21°C° 0 mm 3 mps 684 mmHg 75%
    22:00 +20°C° 0.5 mm 2 mps 683 mmHg 77%
    23:00 +19°C° 0.5 mm 2 mps 683 mmHg 80%

    25 June, Monday

    Time Temperature Precipitation Wind Pressure Humidity
    00:00 +18°C° 0.5 mm 2 mps 683 mmHg 82%
    01:00 +17°C° 0.4 mm 2 mps 683 mmHg 81%
    02:00 +17°C° 0.4 mm 2 mps 683 mmHg 79%
    03:00 +17°C° 0.4 mm 2 mps 683 mmHg 78%
    04:00 +17°C° 0.6 mm 2 mps 683 mmHg 77%
    05:00 +17°C° 0.6 mm 2 mps 683 mmHg 76%
    06:00 +18°C° 0.6 mm 2 mps 683 mmHg 75%
    07:00 +20°C° 0.1 mm 2 mps 684 mmHg 67%
    08:00 +23°C° 0.1 mm 2 mps 684 mmHg 60%
    09:00 +26°C° 0.1 mm 2 mps 684 mmHg 52%
    10:00 +27°C° 0 mm 2 mps 685 mmHg 49%
    11:00 +28°C° 0 mm 2 mps 685 mmHg 46%
    12:00 +30°C° 0 mm 2 mps 685 mmHg 43%
    13:00 +30°C° 0.1 mm 2 mps 685 mmHg 43%
    14:00 +30°C° 0.1 mm 3 mps 685 mmHg 44%
    15:00 +30°C° 0.1 mm 3 mps 684 mmHg 44%
    16:00 +29°C° 0.1 mm 3 mps 684 mmHg 50%
    17:00 +27°C° 0.1 mm 3 mps 684 mmHg 56%
    18:00 +26°C° 0.1 mm 3 mps 684 mmHg 62%
    19:00 +24°C° 0.3 mm 3 mps 684 mmHg 69%
    20:00 +21°C° 0.3 mm 3 mps 684 mmHg 76%
    21:00 +19°C° 0.3 mm 3 mps 684 mmHg 83%
    22:00 +18°C° 0.2 mm 2 mps 684 mmHg 83%
    23:00 +18°C° 0.2 mm 2 mps 684 mmHg 84%

    26 June, Tuesday

    Time Temperature Precipitation Wind Pressure Humidity
    00:00 +17°C° 0.2 mm 2 mps 684 mmHg 84%
    01:00 +18°C° 0 mm 1 mps 683 mmHg 83%
    02:00 +18°C° 0 mm 1 mps 683 mmHg 82%
    03:00 +16°C° 0 mm 1 mps 683 mmHg 80%
    04:00 +18°C° 0 mm 1 mps 683 mmHg 80%
    05:00 +18°C° 0 mm 1 mps 683 mmHg 79%
    06:00 +19°C° 0 mm 1 mps 683 mmHg 79%
    07:00 +20°C° 0 mm 2 mps 683 mmHg 72%
    08:00 +23°C° 0 mm 2 mps 684 mmHg 66%
    09:00 +25°C° 0 mm 2 mps 684 mmHg 59%
    10:00 +26°C° 0.1 mm 2 mps 684 mmHg 56%
    11:00 +27°C° 0.1 mm 2 mps 684 mmHg 52%
    12:00 +28°C° 0.1 mm 3 mps 684 mmHg 49%
    13:00 +29°C° 0.1 mm 2 mps 684 mmHg 47%
    14:00 +29°C° 0.1 mm 2 mps 684 mmHg 46%
    15:00 +29°C° 0.1 mm 2 mps 684 mmHg 45%
    16:00 +28°C° 0.2 mm 2 mps 684 mmHg 50%
    17:00 +27°C° 0.2 mm 3 mps 683 mmHg 55%
    18:00 +26°C° 0.2 mm 3 mps 683 mmHg 61%
    19:00 +24°C° 0.1 mm 3 mps 683 mmHg 67%
    20:00 +21°C° 0.1 mm 3 mps 683 mmHg 74%
    21:00 +19°C° 0.1 mm 3 mps 683 mmHg 80%
    22:00 +19°C° 0.2 mm 2 mps 683 mmHg 82%
    23:00 +18°C° 0.2 mm 2 mps 683 mmHg 84%
    Show more